Ontario, CA

9:42 AM PDT on March 23, 2017 (GMT -0700)
Ontario International

Weather History for KONT - October, 2013

Change the Weather History Date:

Wednesday, October 23, 2013

  Actual Average Record
Temperature  
Mean Temperature 64 °F 66 °F  
Max Temperature 72 °F 79 °F 98 °F (2003)
Min Temperature 55 °F 53 °F 50 °F (2004)
Degree Days  
Heating Degree Days 1 2  
Month to date heating degree days 20 23  
Since 1 July heating degree days 20 26  
Cooling Degree Days 0 3  
Month to date cooling degree days 95 111  
Year to date cooling degree days 1964 1662  
Growing Degree Days 12 (Base 50)    
Moisture  
Dew Point 53 °F    
Average Humidity 72    
Maximum Humidity 93    
Minimum Humidity 51    
Precipitation  
Precipitation 0.00 in 0.02 in 0.14 in (1958)
Month to date precipitation 0.09 0.38  
Year to date precipitation 2.92 11.25  
Since 1 July precipitation 0.13  
Snow  
Snow 0.00 in - - ()
Month to date snowfall 0.0  
Year to date snowfall 0.0  
Snow Depth 0.00 in    
Sea Level Pressure  
Sea Level Pressure 29.92 in    
Wind  
Wind Speed 4 mph (West)    
Max Wind Speed 14 mph    
Max Gust Speed 16 mph    
Visibility 3 miles    
Events Fog    
T = Trace of Precipitation, MM = Missing Value Source: NWS Daily Summary

Daily Weather History Graph

Daily Weather History Graph

Search for Another Location

Airport or City:

Trip Planner

Search our weather history database for the weather conditions in past years. The results will help you decide how hot, cold, wet, or windy it might be!

Date:

Astronomy

Oct. 23, 2013 Rise Set
Actual Time 7:02 AM PDT 6:06 PM PDT
Civil Twilight 6:36 AM PDT 6:31 PM PDT
Nautical Twilight 6:07 AM PDT 7:01 PM PDT
Astronomical Twilight 5:38 AM PDT 7:30 PM PDT
Moon 9:48 PM PDT 11:16 AM PDT
Length of Visible Light 11h 55m
Length of Day
11h 04m
Waning Gibbous, 78% of the Moon is Illuminated
Oct 23
Waning Gibbous
Oct 26
Last Quarter
Nov 3
New
Nov 9
First Quarter
Nov 17
Full

Hourly Weather History & Observations

Time (PDT) Temp. Dew Point Humidity Pressure Visibility Wind Dir Wind Speed Gust Speed Precip Events Conditions
12:53 AM 55.9 °F 53.1 °F 90% 29.90 in 4.0 mi Calm Calm - N/A   Scattered Clouds
1:53 AM 57.0 °F 53.1 °F 87% 29.90 in 4.0 mi West 3.5 mph - N/A   Scattered Clouds
2:53 AM 55.9 °F 53.1 °F 90% 29.89 in 4.0 mi WSW 3.5 mph - N/A   Scattered Clouds
3:12 AM 55.4 °F 51.8 °F 88% 29.93 in 0.5 mi West 4.6 mph - N/A Fog Fog
3:18 AM 55.4 °F 51.8 °F 88% 29.93 in 0.5 mi West 5.8 mph - N/A Fog Fog
3:53 AM 57.0 °F 54.0 °F 89% 29.90 in 1.5 mi WNW 6.9 mph - N/A   Overcast
4:53 AM 55.9 °F 54.0 °F 93% 29.89 in 1.5 mi Calm Calm - N/A   Overcast
5:53 AM 57.0 °F 54.0 °F 89% 29.90 in 1.5 mi Calm Calm - N/A   Overcast
6:53 AM 57.0 °F 54.0 °F 89% 29.91 in 1.0 mi NNW 3.5 mph - N/A   Overcast
7:53 AM 55.9 °F 54.0 °F 93% 29.92 in 1.0 mi Calm Calm - N/A   Overcast
8:53 AM 57.0 °F 54.0 °F 89% 29.94 in 1.0 mi Calm Calm - N/A   Overcast
9:25 AM 57.2 °F 53.6 °F 88% 29.95 in 1.0 mi Calm Calm - N/A   Overcast
9:53 AM 57.9 °F 53.1 °F 84% 29.94 in 1.2 mi WSW 5.8 mph - N/A   Overcast
10:24 AM 59.0 °F 53.6 °F 82% 29.95 in 1.5 mi Calm Calm - N/A   Haze
10:45 AM 59.0 °F 53.6 °F 82% 29.95 in 1.8 mi Calm Calm - N/A   Haze
10:53 AM 60.1 °F 53.1 °F 78% 29.94 in 2.0 mi West 6.9 mph - N/A   Haze
11:53 AM 63.0 °F 52.0 °F 67% 29.93 in 2.5 mi WSW 4.6 mph - N/A   Haze
12:03 PM 64.4 °F 51.8 °F 64% 29.94 in 3.0 mi Calm Calm - N/A   Haze
12:53 PM 66.0 °F 53.1 °F 63% 29.91 in 3.0 mi West 9.2 mph - N/A   Haze
1:53 PM 68.0 °F 52.0 °F 56% 29.89 in 4.0 mi West 9.2 mph - N/A   Haze
2:53 PM 70.0 °F 50.0 °F 49% 29.88 in 4.0 mi WSW 6.9 mph - N/A   Haze
3:53 PM 70.0 °F 51.1 °F 51% 29.87 in 4.0 mi Variable 5.8 mph - N/A   Haze
4:53 PM 70.0 °F 53.1 °F 55% 29.87 in 5.0 mi WSW 8.1 mph - N/A   Haze
5:53 PM 66.0 °F 53.1 °F 63% 29.88 in 6.0 mi WSW 6.9 mph - N/A   Haze
6:53 PM 62.1 °F 52.0 °F 70% 29.91 in 8.0 mi West 9.2 mph - N/A   Clear
7:53 PM 59.0 °F 52.0 °F 78% 29.93 in 7.0 mi West 11.5 mph - N/A   Clear
8:53 PM 57.9 °F 52.0 °F 81% 29.94 in 6.0 mi West 6.9 mph - N/A   Haze
9:53 PM 57.0 °F 52.0 °F 83% 29.95 in 6.0 mi WSW 4.6 mph - N/A   Haze
10:53 PM 59.0 °F 52.0 °F 78% 29.96 in 4.0 mi WSW 5.8 mph - N/A   Haze
11:53 PM 59.0 °F 52.0 °F 78% 29.96 in 4.0 mi WSW 4.6 mph - N/A   Haze